Other Public Products
Issued by NWS Grand Forks, ND

Home | Current Version | Previous Version | Text Only | Print | Product List | Glossary Off
Versions: 1 2 3 4 5 6 7 8 9 10 11 12 13 14 15 16 17 18 19 20 21 22 23 24 25 26 27 28 29 30 31 32 33 34 35 36 37 38 39 40 41 42 43 44 45 46 47 48 49 50

000
FPUS83 KFGF 181010
OPUFGF
PRAIRIE TO PINES WEATHER ROUNDUP
NATIONAL WEATHER SERVICE EASTERN NORTH DAKOTA/GRAND FORKS ND
500 AM CDT SAT APR 18 2015

 **SATELLITE DATA USED TO AUGMENT SKY COVER AT AUTOMATED STATIONS**
 *****  WEATHER ACROSS EASTERN NORTH DAKOTA  *****

CITY           SKY/WX    TMP DP  RH WIND       PRES   REMARKS
GRAND FORKS    CLEAR     28  24  85 NE5       30.15F WCI  23
GRAND FORKS AF CLEAR     24  21  86 N6        30.15F WCI  17
GRAND CITY NWS   N/A     36 N/A N/A E2          N/A
BUXTON         NOT AVBL
DEVILS LAKE    CLEAR     36  28  75 E6        30.12F
FARGO          CLEAR     39  23  52 NE7       30.10S
WAHPETON ARPT  SUNNY     45  21  39 NE9       30.08F
$$

 *****  WEATHER ACROSS CENTRAL AND WESTERN NORTH DAKOTA  *****

CITY           SKY/WX    TMP DP  RH WIND       PRES   REMARKS
JAMESTOWN      CLEAR     32  24  72 N6        30.09F
BISMARCK       PTCLDY    38  27  64 NE7       30.08F
MINOT          CLEAR     34  25  69 E6        30.07F
MINOT AFB      CLEAR     33  27  79 SE7       30.07F
GARRISON         N/A     38  28  67 E8        30.07F
WILLISTON      CLEAR     48  25  40 VRB5      30.01F
DICKINSON      PTCLDY    41  27  57 SE12      30.01F
HETTINGER      PTCLDY    29  24  82 N3        30.04F
$$

 *****  OTHER OBSERVATIONS NORTHEAST NORTH DAKOTA  *****

CITY           SKY/WX    TMP DP  RH WIND       PRES   REMARKS
WALHALLA       FAIR      27  27 100 SW6       30.18S WCI  20
LANGDON        FAIR      34  28  80 E12       30.14F
CAVALIER       FAIR      36  28  75 SE3       30.18S
GRAFTON        FAIR      34  27  75 E5        30.19R
CANDO          FAIR      28  25  86 SE6       30.14F WCI  22
FORT TOTTEN      N/A     42  29  61 E12       29.95S
ROLLA          FAIR      32  28  86 SE3       30.13F
RUGBY          FAIR      36  32  87 E10       30.11S
 ***** THE ABOVE OBSERVATIONS ARE NON NWS ARE NOT QUALITY
        CONTROLLED AND MAY MIS-REPORT RAIN FOR SNOW...
$$

 *****  OTHER OBSERVATIONS SOUTHEAST NORTH DAKOTA *****

CITY           SKY/WX    TMP DP  RH WIND       PRES   REMARKS
COOPERSTOWN    NOT AVBL
VALLEY CITY    FAIR      39  27  60 NE9       30.10F
OAKES            N/A     39  25  56 NE14      30.07S
GWINNER        SUNNY     37  21  52 NE8       30.09S
SHEYENNE NWR     N/A     39  22  51 NE6       29.95S
BUFFALO        NOT AVBL
WYNDMERE         N/A     39  21  48 N3          N/A
 ***** THE ABOVE OBSERVATIONS ARE NON NWS ARE NOT QUALITY
       CONTROLLED AND MAY MIS-REPORT RAIN FOR SNOW...
$$

  *****  WEATHER ACROSS NORTHERN MINNESOTA  *****

CITY           SKY/WX    TMP DP  RH WIND       PRES   REMARKS
FLAG ISLAND    CLEAR     34  30  86 CALM      30.21S
WARROAD        CLEAR     34  30  86 E7        30.22R
ROSEAU         CLEAR     36  28  75 E9        30.20R
HALLOCK        CLEAR     39  28  65 E12       30.18S
THF RVR FALLS  CLEAR     37  28  70 E9        30.18R
HALSTAD        NOT AVBL
FOSSTON        CLEAR     34  25  69 E6        30.16S
BAUDETTE       CLEAR     34  29  82 E5        30.21R
WASKISH        CLEAR     34  30  86 CALM      30.20R
CROOKSTON      CLEAR     37  28  70 E12       30.16F
$$
  *****  WEATHER ACROSS CENTRAL AND WEST MINNESOTA  *****

CITY           SKY/WX    TMP DP  RH WIND       PRES   REMARKS
BEMIDJI        CLEAR     33  28  80 E7        30.17R
PARK RAPIDS    CLEAR     43  29  57 NE8       30.12F
WADENA         CLEAR     41  25  52 NE7       30.12S
DETROIT LAKES  CLEAR     45  30  57 E5        30.12F
MOORHEAD       CLEAR     36  21  55 N5        30.11S
FERGUS FALLS   CLEAR     48  21  34 E12G18    30.09F
ELBOW LAKE     FAIR      50  26  40 E15G22    30.07S
MORRIS MN      PTCLDY    52  27  37 E14G21    30.06R
STAPLES        CLEAR     43  25  49 NE3       30.11F
WHEATON        CLEAR     45  23  42 NE7       30.09R
$$
  *****  WEATHER ELSEWHERE ACROSS MINNESOTA  *****

CITY           SKY/WX    TMP DP  RH WIND       PRES   REMARKS
DULUTH         CLEAR     41  28  60 E10       30.16S
INTRNTL FALLS  CLEAR     30  26  85 E6        30.22R WCI  24
ELY            CLEAR     36  30  80 NE5       30.20S
CLOQUET        CLEAR     43  28  56 E12       30.15F
BRAINERD       CLEAR     42  28  57 NE7       30.13R
HIBBING        CLEAR     34  27  75 SE3       30.18R
ALEXANDRIA     CLEAR     47  24  40 NE13      30.09F
SAINT CLOUD    CLEAR     50  25  37 NE10      30.09R
MINNEAPOLIS    PTCLDY    55  29  36 NE10      30.07R
$$

  *****  WEATHER ACROSS SOUTH DAKOTA  *****

CITY           SKY/WX    TMP DP  RH WIND       PRES   REMARKS
SIOUX FALLS    MOCLDY    52  27  38 NE6       30.01S
BROOKINGS      CLOUDY    46  30  53 NE5       30.04S
WATERTOWN      PTCLDY    45  29  53 N5        30.04F
HURON          CLOUDY    51  29  42 NE7       30.00F
SISSETON         N/A     39  24  55 NW5       30.08R
ABERDEEN       MOCLDY    42  25  50 N9        30.06S
MITCHELL       CLOUDY    55  27  34 E8        30.00S
PIERRE         CLOUDY    53  44  71 N12       29.99F
MOBRIDGE       CLOUDY    51  26  37 E14       30.01F
RAPID CITY     CLOUDY    48  45  89 N3        30.02F
$$

  *****  SOME WEATHER IN NEARBY STATES *****

CITY           SKY/WX    TMP DP  RH WIND       PRES   REMARKS
GLASGOW MT     CLEAR     41  29  62 E12       29.92F
GREAT FALLS MT MOCLDY    37  27  67 SW3       30.03R
CHEYENNE WY    MIX PCPN  34  32  92 NW8       29.96F
SCOTTSBLUFF NE LGT RAIN  42  42 100 W7        29.97F
OMAHA NE       CLOUDY    62  54  74 NE5       29.93F
DES MOINES IA  LGT RAIN  62  57  83 VRB3      29.99S
DAVENPORT IA   CLEAR     52  44  74 SW3       30.01S
CHICAGO IL     PTCLDY    60  47  61 N3        30.00S
EAU CLAIRE WI  CLEAR     46  30  53 NE9       30.08R
LA CROSSE WI   PTCLDY    51  45  79 CALM      30.04S
$$

  *****  SOME NATIONAL WEATHER *****

CITY           SKY/WX    TMP DP  RH WIND       PRES   REMARKS
LA GUARDIA NY  PTCLDY    56  44  64 CALM      29.96S
RALEIGH NC     CLOUDY    62  61  96 CALM      30.00R
ATLANTA GA     DRZL/FOG  63  61  93 NE7       29.96F VSB 1/2
NEW ORLEANS LA LGT RAIN  73  69  87 SE3       29.91R
OKLAHOMA CITY  CLOUDY    62  56  80 E5        29.93F
ALBUQUERQUE NM CLOUDY    36  24  62 SE7       30.00F
SALT LAKE CITY FAIR      45  37  73 NW7       30.01F
LOS ANGELES CA FAIR      58  49  72 CALM      30.00F
BOISE ID       FAIR      46  33  60 CALM      30.06R
SEATTLE WA     FAIR      48  41  76 N5        30.33S
$$

*** WEATHER ACROSS MANITOBA...SASKATCHEWAN AND ONTARIO ***
                ***ONTARIO***

CITY           SKY/WX    TMP DP  RH WIND       PRES   REMARKS
GERALDTON      CLOUDY    34  30  86 N10       30.19R
THUNDER BAY    PTCLDY    34  30  86 NW6       30.25R
SIOUX LOOKOUT  CLEAR     21  21 100 CALM      30.23R
TORONTO        PTCLDY    46  39  76 SW5       29.95S
BIG TROUT LK   CLOUDY    30  30 100 N5        30.23R
PICKLE LAKE    NOT AVBL
DRYDEN         CLEAR     28  27  93 E2        30.22R
KENORA         CLEAR     36  28  75 S5        30.23R
$$
                *** MANITOBA***

CITY           SKY/WX    TMP DP  RH WIND       PRES   REMARKS
BRANDON        CLEAR     28  27  93 E8        30.13F WCI  20
DAUPHIN        CLEAR     32  30  93 N3        30.10F
ISLAND LAKE    PTCLDY    32  30  93 SE7       30.21S
PILOT MOUND      N/A     27  25  93 E7          N/A  WCI  19
THE PAS        LGT RAIN  41  34  75 S7G17     30.06S
THOMPSON       MOCLDY    36  28  75 SE3       30.11F
WINNIPEG       CLEAR     37  28  70 SE8       30.20S
CHURCHILL      MOCLDY    16  12  86 NW6       30.27R WCI   7
GILLAM         CLEAR     23  23 100 VRB2      30.20S
$$
                ***SASKATCHEWAN***

CITY           SKY/WX    TMP DP  RH WIND       PRES   REMARKS
ESTEVAN        NOT AVBL
KINDERSLEY     PTCLDY    39  37  93 NW12      29.97R
LLOYDMINSTER   MOCLDY    39  36  87 W13G21    29.96R
PRINCE ALBERT  LGT RAIN  46  32  57 SE15G22   29.84F
REGINA         PTCLDY    43  30  61 SE17G26   29.92F
YORKTON        CLEAR     39  32  75 SE16G22   29.98F


USA.gov is the U.S. government's official web portal to all federal, state and local government web resources and services.